LANDSAT 9

Last updated on Sun Apr 05 2026 00:02:33 GMT+0000 (Coordinated Universal Time)

1 49260U 21088A 26094.17112299 .00000661 00000+0 15665-3 0 9991 2 49260 98.1895 165.5400 0001179 97.6841 262.4492 14.57124864240228
UTC large
Height (km)
Speed (km/s)
/
Latitude / Longitude
Inclination (degrees)
Orbital Period (minutes)
Azimuth
Elevation
Range (km)
Doppler Factor

Next 0 passes for location: London (51.5072 / 0.1276)

Sorry there are no passes over London.